Flag for Peru Weather past 2 weeks in Chiclayo, Lambayeque, Peru

Now
82 °F

Sunny.


Feels Like: 84 °F
Forecast: 71 / 84 °F
Wind: 18 mph from South

Location: Chiclayo Airport

Current Time: Apr 1, 2015 at 12:55:41 PM

Latest Report: Apr 1, 2015 at 12:00 PM


Visibility: 10 mi

Pressure: 29.86 "Hg

Humidity: 55%

Dew point: 64 °F

Location of ChiclayoLocation

Historic Weather in Chiclayo — Graph

°F

Chiclayo temperature yesterday

Maximum temperature yesterday: 84 °F (at 12:00 PM)
Minimum temperature yesterday: 72 °F (at 1:00 AM)
Average temperature yesterday: 76 °F

Past Weeks' High & Low Weather Summary

 TemperatureHumidityPressure
High88 °F (Mar 17, 3:00 PM)100% (Mar 23, 2:00 AM)30.01 "Hg (Mar 23, 2:00 AM)
Low70 °F (Apr 1, 5:00 AM)52% (Mar 17, 3:00 PM)29.77 "Hg (Mar 17, 4:00 PM)
Average79 °F75%29.90 "Hg
* Reported Mar 17 12:00 Noon — Apr 1 12:00 Noon, Chiclayo, Weather by CustomWeather, © 2015

Note: Actual official high and low records may vary slightly from our data, if they occured in-between our weather recording intervals... More about our weather records

Advertising

Chiclayo weather history for previous 24 hours

 ConditionsComfort  
Time TempWeatherWind HumidityBarometerVisibility
12:00 PM
Wed, Apr 1
82 °FSunny.18 mph55%29.86 "Hg10 mi
11:00 AM81 °FSunny.15 mph62%29.89 "Hg10 mi
10:00 AM77 °FSunny.10 mph74%29.89 "Hg10 mi
9:00 AM73 °FSunny.9 mph78%29.89 "Hg10 mi
8:00 AM73 °FLight rain. More clouds than sun.9 mph78%29.89 "HgN/A
7:00 AM70 °FSunny.8 mph88%29.89 "Hg10 mi
6:00 AM70 °FClear.8 mph83%29.89 "Hg10 mi
5:00 AM70 °FClear.9 mph88%29.89 "Hg10 mi
4:00 AM72 °FClear.10 mph83%29.89 "Hg10 mi
3:00 AM72 °FClear.12 mph83%29.89 "Hg10 mi
2:00 AM72 °FClear.15 mph88%29.89 "Hg10 mi
1:00 AM72 °FClear.12 mph88%29.92 "Hg10 mi
12:00 AM72 °FClear.13 mph88%29.92 "Hg10 mi
11:00 PM
Tue, Mar 31
72 °FLight rain. Passing clouds.12 mph88%29.92 "HgN/A
10:00 PM72 °FClear.8 mph88%29.92 "Hg10 mi
9:00 PM73 °FClear.13 mph83%29.89 "Hg10 mi
8:00 PM73 °FClear.17 mph83%29.86 "Hg10 mi
7:00 PM75 °FClear.20 mph78%29.83 "Hg10 mi
6:00 PM77 °FSunny.22 mph69%29.80 "Hg10 mi
5:00 PM81 °FSunny.23 mph62%29.77 "Hg10 mi
4:00 PM82 °FSunny.22 mph58%29.77 "Hg10 mi
3:00 PM84 °FSunny.20 mph55%29.80 "Hg10 mi
1:00 PM84 °FSunny.20 mph55%29.86 "Hg10 mi
12:00 PM84 °FPassing clouds.15 mph55%29.89 "HgN/A
Weather by CustomWeather, © 2015

See weather overviewHow to use our weather pages